Location: Carthage
(33.8834°N, 106.6595°W)
Time: 13:35:38
(UTC+00:00)

SMAP - Pass Details

Date: 13 February 2026
Orbit: 681 x 683 km, 98.1° (Epoch: 11 March)

Event Time Altitude Azimuth Distance (km) Brightness Sun altitude
Rises 13:07:04 0° 16° (NNE) 3,048 6.5 -10.1°
Reaches altitude 10° 13:09:20 10° 20° (NNE) 2,128 5.7 -9.7°
Maximum altitude 13:13:57 63° 101° (E) 762 3.7 -8.7°
Drops below altitude 10° 13:18:32 10° 182° (S) 2,114 5.7 -7.8°
Sets 13:20:46 0° 186° (S) 3,025 6.5 -7.3°
